Location: ?ern� Novina
(50.6762°N, 14.8696°E)
Time: 12:47:38
(UTC+00:00)

Cosmos 2219 Rocket - Pass Details

Date: 03 March 2021
Orbit: 827 x 848 km, 71.0° (Epoch: 11 April)

Event Time Altitude Azimuth Distance (km) Brightness Sun altitude
Rises 21:10:45 0° 254° (WSW) 3,367 5.6 -39.1°
Reaches altitude 10° 21:13:40 10° 268° (W) 2,440 4.9 -39.4°
Maximum altitude 21:18:06 24° 321° (NW) 1,690 4.2 -39.8°
Drops below altitude 10° 21:22:34 10° 14° (NNE) 2,459 4.9 -40.2°
Sets 21:25:33 0° 28° (NNE) 3,401 5.6 -40.5°
